Peoria, IL

8:01 PM CDT on May 22, 2017 (GMT -0500)
Greater Peoria Regional

Weather History for KPIA - May, 2014

Change the Weather History Date:

Friday, May 2, 2014

  Actual Average Record
Temperature  
Mean Temperature 53 °F 58 °F  
Max Temperature 59 °F 69 °F 92 °F (1901)
Min Temperature 47 °F 47 °F 30 °F (1911)
Degree Days  
Heating Degree Days 12 8  
Month to date heating degree days 29 16  
Since 1 July heating degree days 6496 5681  
Cooling Degree Days 0 1  
Month to date cooling degree days 0 2  
Year to date cooling degree days 6 16  
Growing Degree Days 2 (Base 50)    
Moisture  
Dew Point 41 °F    
Average Humidity 67    
Maximum Humidity 82    
Minimum Humidity 51    
Precipitation  
Precipitation T in 0.14 in 2.46 in (1935)
Month to date precipitation 0.01 0.27  
Year to date precipitation 10.54 10.27  
Snow  
Snow 0.00 in 0.00 in 0.00 in ()
Month to date snowfall 0.0 0.0  
Since 1 July snowfall 57.6 24.6  
Snow Depth 0.00 in    
Sea Level Pressure  
Sea Level Pressure 29.85 in    
Wind  
Wind Speed 10 mph (WSW)    
Max Wind Speed 17 mph    
Max Gust Speed 22 mph    
Visibility 10 miles    
Events Rain    
T = Trace of Precipitation, MM = Missing Value Source: NWS Daily Summary

Daily Weather History Graph

Daily Weather History Graph

Search for Another Location

Airport or City:

Trip Planner

Search our weather history database for the weather conditions in past years. The results will help you decide how hot, cold, wet, or windy it might be!

Date:

Astronomy

May. 02, 2014 Rise Set
Actual Time 5:56 AM CDT 7:55 PM CDT
Civil Twilight 5:26 AM CDT 8:25 PM CDT
Nautical Twilight 4:50 AM CDT 9:02 PM CDT
Astronomical Twilight 4:10 AM CDT 9:41 PM CDT
Moon 8:33 AM CDT (5/2) 11:18 PM CDT (5/2)
Length of Visible Light 14h 59m
Length of Day
13h 59m
Waxing Crescent, 12% of the Moon is Illuminated
May 2
Waxing Crescent
May 6
First Quarter
May 14
Full
May 21
Last Quarter
May 28
New

Hourly Weather History & Observations

Time (CDT) Temp. Dew Point Humidity Pressure Visibility Wind Dir Wind Speed Gust Speed Precip Events Conditions
12:54 AM 48.0 °F 39.9 °F 74% 29.90 in 10.0 mi West 12.7 mph - N/A   Overcast
1:03 AM 48.0 °F 39.9 °F 74% 29.89 in 10.0 mi West 10.4 mph - N/A   Overcast
1:24 AM 48.0 °F 39.9 °F 74% 29.89 in 10.0 mi West 9.2 mph - N/A   Overcast
1:54 AM 48.0 °F 39.9 °F 74% 29.89 in 10.0 mi West 5.8 mph - N/A   Overcast
2:54 AM 46.9 °F 39.9 °F 77% 29.88 in 10.0 mi West 9.2 mph - N/A   Overcast
3:54 AM 46.9 °F 41.0 °F 80% 29.88 in 10.0 mi WSW 6.9 mph - N/A   Overcast
4:54 AM 46.9 °F 39.9 °F 77% 29.88 in 10.0 mi West 8.1 mph - N/A   Overcast
5:54 AM 46.9 °F 39.9 °F 77% 29.88 in 10.0 mi WSW 9.2 mph - N/A   Overcast
6:54 AM 46.9 °F 41.0 °F 80% 29.88 in 10.0 mi WSW 8.1 mph - N/A   Overcast
7:21 AM 46.9 °F 41.0 °F 80% 29.88 in 10.0 mi West 8.1 mph - N/A   Overcast
7:54 AM 48.0 °F 41.0 °F 77% 29.89 in 10.0 mi West 6.9 mph - N/A   Overcast
8:07 AM 48.0 °F 41.0 °F 77% 29.88 in 10.0 mi West 9.2 mph - N/A   Overcast
8:32 AM 48.9 °F 41.0 °F 74% 29.88 in 10.0 mi West 9.2 mph - N/A   Overcast
8:54 AM 48.9 °F 41.0 °F 74% 29.89 in 10.0 mi West 9.2 mph - N/A   Overcast
9:05 AM 48.9 °F 41.0 °F 74% 29.88 in 10.0 mi West 11.5 mph - N/A   Overcast
9:54 AM 50.0 °F 42.1 °F 74% 29.89 in 10.0 mi West 8.1 mph - N/A   Overcast
10:46 AM 52.0 °F 41.0 °F 66% 29.88 in 10.0 mi WNW 10.4 mph - N/A   Overcast
10:54 AM 52.0 °F 39.9 °F 63% 29.89 in 10.0 mi West 8.1 mph - N/A   Overcast
11:03 AM 53.1 °F 39.9 °F 61% 29.88 in 10.0 mi WSW 12.7 mph - N/A   Overcast
11:28 AM 53.1 °F 39.9 °F 61% 29.88 in 10.0 mi WSW 9.2 mph - N/A   Overcast
11:54 AM 52.0 °F 39.0 °F 61% 29.88 in 10.0 mi West 10.4 mph - N/A   Overcast
12:05 PM 53.1 °F 39.9 °F 61% 29.87 in 10.0 mi WSW 8.1 mph - N/A   Overcast
12:23 PM 53.1 °F 39.9 °F 61% 29.87 in 10.0 mi WSW 6.9 mph - N/A   Overcast
12:54 PM 53.1 °F 39.9 °F 61% 29.87 in 10.0 mi WSW 9.2 mph - N/A   Overcast
1:54 PM 53.1 °F 39.0 °F 59% 29.87 in 10.0 mi West 11.5 mph - N/A   Overcast
2:54 PM 54.0 °F 39.9 °F 59% 29.86 in 10.0 mi West 9.2 mph - N/A   Overcast
3:54 PM 57.0 °F 41.0 °F 55% 29.82 in 10.0 mi SW 11.5 mph - N/A   Mostly Cloudy
4:54 PM 57.0 °F 41.0 °F 55% 29.81 in 10.0 mi SW 15.0 mph - N/A   Overcast
5:54 PM 59.0 °F 41.0 °F 51% 29.79 in 10.0 mi SW 11.5 mph - N/A   Mostly Cloudy
6:54 PM 57.2 °F 41.0 °F 55% 29.78 in 10.0 mi SW 10.4 mph - N/A   Mostly Cloudy
7:54 PM 55.9 °F 39.9 °F 55% 29.76 in 10.0 mi South 10.4 mph - N/A   Partly Cloudy
8:54 PM 55.9 °F 42.1 °F 60% 29.76 in 10.0 mi South 15.0 mph - 0.00 in Rain Light Rain
9:54 PM 55.0 °F 42.1 °F 62% 29.76 in 10.0 mi South 11.5 mph - 0.00 in   Overcast
10:54 PM 54.0 °F 42.1 °F 64% 29.75 in 10.0 mi SSW 13.8 mph - N/A   Partly Cloudy
11:54 PM 55.0 °F 41.0 °F 59% 29.74 in 10.0 mi SSW 11.5 mph - N/A   Mostly Cloudy